Weather History for New Ulm, MN

Change the Weather History Date:

Friday, September 6, 2013

  Actual Average Record
Temperature  
Mean Temperature 78 °F -  
Max Temperature 91 °F 78 °F 99 °F (1976)
Min Temperature 66 °F 54 °F 38 °F (1956)
Cooling Degree Days 14    
Growing Degree Days 28 (Base 50)    
Moisture  
Dew Point 68 °F    
Average Humidity 72    
Maximum Humidity 100    
Minimum Humidity 43    
Precipitation  
Precipitation 0.00 in - - ()
Sea Level Pressure  
Sea Level Pressure 29.98 in    
Wind  
Wind Speed 9 mph (South)    
Max Wind Speed 20 mph    
Max Gust Speed 24 mph    
Visibility 10 miles    
Events Thunderstorm    
Averages and records for this station are not official NWS values.
T = Trace of Precipitation, MM = Missing Value Source: NWS Daily Summary

Daily Weather History Graph

Daily Weather History Graph

Search for Another Location

Airport:

Trip Planner

Search our weather history database for the weather conditions in past years. The results will help you decide how hot, cold, wet, or windy it might be!

Date:

Astronomy

Sep. 06, 2013 Rise Set
Actual Time 6:46 AM CDT 7:44 PM CDT
Civil Twilight 6:17 AM CDT 8:14 PM CDT
Nautical Twilight 5:42 AM CDT 8:49 PM CDT
Astronomical Twilight 5:04 AM CDT 9:26 PM CDT
Moon 8:04 AM CDT (9/6) 8:03 PM CDT (9/6)
Length of Visible Light 13h 56m
Length of Day
12h 57m
New Moon, 2% of the Moon is Illuminated
Sep 6
New Moon
Sep 12
First Quarter
Sep 19
Full
Sep 26
Last Quarter
Oct 4
New

Hourly Weather History & Observations

Time (CDT) Temp. Heat Index Dew Point Humidity Pressure Visibility Wind Dir Wind Speed Gust Speed Precip Events Conditions
12:13 AM 71.6 °F - 68.0 °F 88% 30.08 in 10.0 mi SSE 6.9 mph - N/A   Clear
12:33 AM 71.6 °F - 66.2 °F 83% 30.09 in 10.0 mi SE 4.6 mph - N/A   Clear
12:52 AM 69.8 °F - 66.2 °F 88% 30.09 in 10.0 mi SSE 5.8 mph - N/A   Clear
1:13 AM 71.6 °F - 66.2 °F 83% 30.09 in 10.0 mi SSE 4.6 mph - N/A   Clear
1:33 AM 69.8 °F - 66.2 °F 88% 30.10 in 10.0 mi South 6.9 mph - N/A   Clear
1:52 AM 69.8 °F - 66.2 °F 88% 30.09 in 10.0 mi South 4.6 mph - N/A   Scattered Clouds
2:13 AM 71.6 °F - 66.2 °F 83% 30.09 in 10.0 mi South 8.1 mph - N/A   Scattered Clouds
2:32 AM 69.8 °F - 66.2 °F 88% 30.09 in 10.0 mi South 4.6 mph - N/A   Scattered Clouds
2:53 AM 69.8 °F - 66.2 °F 88% 30.09 in 10.0 mi South 5.8 mph - N/A   Clear
3:13 AM 69.8 °F - 66.2 °F 88% 30.09 in 10.0 mi SSE 3.5 mph - N/A   Clear
3:32 AM 68.0 °F - 66.2 °F 94% 30.09 in 10.0 mi SE 3.5 mph - N/A   Clear
3:53 AM 66.2 °F - 66.2 °F 100% 30.09 in 10.0 mi SE 3.5 mph - N/A Thunderstorm Clear
4:13 AM 68.0 °F - 68.0 °F 100% 30.09 in 10.0 mi ESE 4.6 mph - N/A   Clear
4:32 AM 69.8 °F - 69.8 °F 100% 30.09 in 10.0 mi SE 4.6 mph - N/A   Clear
4:53 AM 69.8 °F - 69.8 °F 100% 30.08 in 10.0 mi SSE 5.8 mph - N/A Thunderstorm Clear
5:13 AM 69.8 °F - 69.8 °F 100% 30.08 in 10.0 mi South 4.6 mph - N/A   Scattered Clouds
5:32 AM 69.8 °F - 69.8 °F 100% 30.08 in 10.0 mi SSE 3.5 mph - N/A   Mostly Cloudy
5:53 AM 69.8 °F - 69.8 °F 100% 30.08 in 10.0 mi SSE 4.6 mph - N/A   Scattered Clouds
6:13 AM 69.8 °F - 69.8 °F 100% 30.07 in 10.0 mi SSE 5.8 mph - N/A   Mostly Cloudy
6:32 AM 69.8 °F - 69.8 °F 100% 30.07 in 10.0 mi SSE 9.2 mph - N/A Thunderstorm Scattered Clouds
6:53 AM 69.8 °F - 69.8 °F 100% 30.06 in 10.0 mi SSE 9.2 mph - N/A   Scattered Clouds
7:13 AM 69.8 °F - 69.8 °F 100% 30.07 in 10.0 mi SSE 8.1 mph - N/A   Scattered Clouds
7:33 AM 69.8 °F - 69.8 °F 100% 30.06 in 10.0 mi SSE 9.2 mph - N/A   Mostly Cloudy
7:53 AM 69.8 °F - 69.8 °F 100% 30.06 in 10.0 mi South 8.1 mph - N/A   Scattered Clouds
8:13 AM 69.8 °F - 69.8 °F 100% 30.05 in 10.0 mi SSE 8.1 mph - N/A   Clear
8:33 AM 71.6 °F - 69.8 °F 94% 30.05 in 10.0 mi South 11.5 mph - N/A   Clear
8:53 AM 73.4 °F - 68.0 °F 83% 30.04 in 10.0 mi South 11.5 mph - N/A   Scattered Clouds
9:12 AM 75.2 °F - 68.0 °F 78% 30.03 in 10.0 mi South 13.8 mph - N/A   Clear
9:33 AM 77.0 °F - 66.2 °F 69% 30.03 in 10.0 mi South 15.0 mph - N/A   Clear
9:53 AM 78.8 °F - 64.4 °F 61% 30.02 in 10.0 mi South 11.5 mph 16.1 mph N/A   Clear
10:12 AM 78.8 °F - 64.4 °F 61% 30.02 in 10.0 mi South 13.8 mph - N/A   Clear
10:33 AM 80.6 °F 82.3 °F 64.4 °F 58% 30.01 in 10.0 mi South 15.0 mph 20.7 mph N/A   Clear
10:53 AM 82.4 °F 83.9 °F 64.4 °F 54% 30.00 in 10.0 mi South 12.7 mph 21.9 mph N/A   Clear
11:12 AM 82.4 °F 83.9 °F 64.4 °F 54% 29.99 in 10.0 mi South 18.4 mph 23.0 mph N/A   Clear
11:33 AM 84.2 °F 85.6 °F 64.4 °F 51% 29.99 in 10.0 mi South 15.0 mph 21.9 mph N/A   Clear
11:53 AM 84.2 °F 85.6 °F 64.4 °F 51% 29.99 in 10.0 mi South 18.4 mph 21.9 mph N/A   Clear
12:12 PM 86.0 °F 87.3 °F 64.4 °F 48% 29.98 in 10.0 mi South 17.3 mph - N/A   Clear
12:33 PM 86.0 °F 88.2 °F 66.2 °F 51% 29.97 in 10.0 mi South 17.3 mph 20.7 mph N/A   Clear
12:52 PM 87.8 °F 90.4 °F 66.2 °F 49% 29.96 in 10.0 mi South 17.3 mph 20.7 mph N/A   Clear
1:13 PM 87.8 °F 90.4 °F 66.2 °F 49% 29.96 in 10.0 mi South 13.8 mph 19.6 mph N/A   Clear
1:33 PM 87.8 °F 90.4 °F 66.2 °F 49% 29.94 in 10.0 mi South 18.4 mph - N/A   Clear
1:52 PM 89.6 °F 92.2 °F 66.2 °F 46% 29.94 in 10.0 mi South 17.3 mph 23.0 mph N/A   Clear
2:13 PM 89.6 °F 92.2 °F 66.2 °F 46% 29.93 in 10.0 mi South 16.1 mph 24.2 mph N/A   Clear
2:33 PM 89.6 °F 92.2 °F 66.2 °F 46% 29.93 in 10.0 mi South 18.4 mph 24.2 mph N/A   Clear
2:52 PM 91.4 °F 94.0 °F 66.2 °F 43% 29.92 in 10.0 mi SSW 19.6 mph 24.2 mph N/A   Clear
3:13 PM 91.4 °F 94.0 °F 66.2 °F 43% 29.92 in 10.0 mi South 18.4 mph 23.0 mph N/A   Clear
3:33 PM 91.4 °F 94.0 °F 66.2 °F 43% 29.91 in 10.0 mi South 17.3 mph - N/A   Clear
3:52 PM 91.4 °F 94.0 °F 66.2 °F 43% 29.90 in 10.0 mi SSW 19.6 mph 23.0 mph N/A   Clear
4:13 PM 91.4 °F 94.0 °F 66.2 °F 43% 29.89 in 10.0 mi SSW 16.1 mph 23.0 mph N/A   Clear
4:33 PM 91.4 °F 94.0 °F 66.2 °F 43% 29.89 in 10.0 mi South 13.8 mph 20.7 mph N/A   Clear
4:52 PM 91.4 °F 94.0 °F 66.2 °F 43% 29.88 in 10.0 mi South 16.1 mph 23.0 mph N/A   Clear
5:13 PM 89.6 °F 92.2 °F 66.2 °F 46% 29.87 in 10.0 mi SSW 17.3 mph 21.9 mph N/A   Clear
5:33 PM 91.4 °F 95.4 °F 68.0 °F 46% 29.88 in 10.0 mi South 17.3 mph 20.7 mph N/A   Clear
5:52 PM 89.6 °F 93.4 °F 68.0 °F 49% 29.87 in 10.0 mi South 12.7 mph 18.4 mph N/A   Clear
6:13 PM 89.6 °F 93.4 °F 68.0 °F 49% 29.87 in 10.0 mi South 11.5 mph - N/A   Clear
6:33 PM 87.8 °F 92.6 °F 69.8 °F 55% 29.87 in 10.0 mi South 9.2 mph - N/A   Clear
6:52 PM 87.8 °F 92.6 °F 69.8 °F 55% 29.87 in 10.0 mi South 6.9 mph - N/A   Clear
7:13 PM 84.2 °F 88.4 °F 69.8 °F 62% 29.87 in 10.0 mi South 6.9 mph - N/A   Clear
7:33 PM 84.2 °F 88.4 °F 69.8 °F 62% 29.88 in 10.0 mi South 5.8 mph - N/A   Clear
7:52 PM 82.4 °F 86.3 °F 69.8 °F 66% 29.88 in 10.0 mi South 5.8 mph - N/A   Clear
8:13 PM 80.6 °F 83.9 °F 69.8 °F 70% 29.88 in 10.0 mi South 5.8 mph - N/A   Clear
8:32 PM 80.6 °F 83.9 °F 69.8 °F 70% 29.88 in 10.0 mi South 6.9 mph - N/A   Clear
8:53 PM 78.8 °F - 69.8 °F 74% 29.88 in 10.0 mi South 6.9 mph - N/A   Clear
9:13 PM 78.8 °F - 69.8 °F 74% 29.87 in 10.0 mi South 8.1 mph - N/A   Clear
9:33 PM 78.8 °F - 69.8 °F 74% 29.88 in 10.0 mi South 6.9 mph - N/A   Clear
9:53 PM 78.8 °F - 69.8 °F 74% 29.88 in 10.0 mi South 5.8 mph - N/A   Clear
10:13 PM 77.0 °F - 69.8 °F 78% 29.88 in 10.0 mi South 5.8 mph - N/A   Clear
10:33 PM 75.2 °F - 69.8 °F 83% 29.88 in 10.0 mi South 4.6 mph - N/A   Clear
10:53 PM 75.2 °F - 69.8 °F 83% 29.88 in 10.0 mi South 5.8 mph - N/A   Clear
11:13 PM 75.2 °F - 69.8 °F 83% 29.88 in 10.0 mi South 4.6 mph - N/A   Clear
11:32 PM 75.2 °F - 69.8 °F 83% 29.88 in 10.0 mi SSW 6.9 mph - N/A   Clear
11:53 PM 75.2 °F - 69.8 °F 83% 29.88 in 10.0 mi SSW 8.1 mph - N/A   Clear